| time (UTC) | temp F | wind direction | speed knots | gust knots | rain 1hr in | rain 24hr in | rain mn in | humidity % | barometer mb |
| 20260903043027 | 76 | 210 | 2.6 | 4.3 | 0.00 | 0.00 | 0.00 | 85 | 1016.5 |
| 20260903041518 | 76 | 205 | 2.6 | 3.5 | 0.00 | 0.00 | 0.00 | 85 | 1016.4 |
| 20260903040015 | 76 | 215 | 1.7 | 2.6 | 0.00 | 0.00 | 0.00 | 85 | 1016.4 |
| 20260903034510 | 76 | 222 | 1.7 | 2.6 | 0.00 | 0.00 | 0.00 | 85 | 1016.5 |
| 20260903033028 | 77 | 213 | 1.7 | 3.5 | 0.00 | 0.00 | 0.00 | 84 | 1016.6 |
| 20260903031539 | 77 | 224 | 1.7 | 2.6 | 0.00 | 0.00 | 0.00 | 85 | 1016.6 |
| 20260903030027 | 77 | 213 | 1.7 | 3.5 | 0.00 | 0.00 | 0.00 | 84 | 1016.8 |
| 20260903024510 | 78 | 225 | 1.7 | 2.6 | 0.00 | 0.00 | 0.00 | 83 | 1016.8 |
| 20260903023034 | 78 | 209 | 1.7 | 2.6 | 0.00 | 0.00 | 0.00 | 83 | 1017.0 |
| 20260903021542 | 78 | 202 | 1.7 | 2.6 | 0.00 | 0.00 | 0.00 | 84 | 1017.0 |
| 20260903020035 | 78 | 217 | 1.7 | 1.7 | 0.00 | 0.00 | 0.00 | 83 | 1017.0 |
| 20260903014542 | 79 | 214 | 1.7 | 2.6 | 0.00 | 0.00 | 0.00 | 82 | 1017.0 |
| 20260903013018 | 79 | 233 | 1.7 | 2.6 | 0.00 | 0.00 | 0.00 | 82 | 1016.8 |
| 20260903011538 | 79 | 196 | 1.7 | 3.5 | 0.00 | 0.00 | 0.00 | 82 | 1016.7 |
| 20260903010006 | 79 | 217 | 1.7 | 3.5 | 0.00 | 0.00 | 0.00 | 83 | 1016.6 |
| 20260903004507 | 79 | 222 | 0.9 | 1.7 | 0.00 | 0.00 | 0.00 | 83 | 1016.5 |
| 20260903003019 | 79 | 203 | 1.7 | 2.6 | 0.00 | 0.00 | 0.00 | 82 | 1016.4 |
| 20260903001515 | 80 | 202 | 1.7 | 1.7 | 0.00 | 0.00 | 0.00 | 81 | 1016.4 |
| 20260903000014 | 81 | 223 | 0.0 | 1.7 | 0.00 | 0.00 | 0.00 | 79 | 1016.4 |
| 20260902234510 | 84 | 207 | 0.9 | 3.5 | 0.00 | 0.00 | 0.00 | 74 | 1016.3 |
| 20260902233006 | 85 | 225 | 1.7 | 3.5 | 0.00 | 0.00 | 0.00 | 71 | 1016.4 |
| 20260902231504 | 86 | 227 | 1.7 | 3.5 | 0.00 | 0.00 | 0.00 | 70 | 1016.4 |
| 20260902230026 | 87 | 198 | 2.6 | 4.3 | 0.00 | 0.00 | 0.00 | 67 | 1016.4 |
| 20260902224522 | 88 | 221 | 2.6 | 6.1 | 0.00 | 0.00 | 0.00 | 64 | 1016.5 |
| 20260902223019 | 88 | 221 | 1.7 | 6.1 | 0.00 | 0.00 | 0.00 | 63 | 1016.4 |
| 20260902221517 | 89 | 254 | 2.6 | 6.1 | 0.00 | 0.00 | 0.00 | 62 | 1016.5 |
| 20260902220043 | 89 | 225 | 3.5 | 6.1 | 0.00 | 0.00 | 0.00 | 60 | 1016.6 |
| 20260902214546 | 90 | 200 | 3.5 | 7.8 | 0.00 | 0.00 | 0.00 | 57 | 1016.6 |
| 20260902213030 | 90 | 257 | 2.6 | 8.7 | 0.00 | 0.00 | 0.00 | 58 | 1016.6 |
| 20260902211535 | 90 | 219 | 4.3 | 8.7 | 0.00 | 0.00 | 0.00 | 56 | 1016.7 |
| 20260902210036 | 91 | 223 | 4.3 | 8.7 | 0.00 | 0.00 | 0.00 | 57 | 1016.8 |
| 20260902204527 | 91 | 212 | 2.6 | 8.7 | 0.00 | 0.00 | 0.00 | 58 | 1017.0 |
| 20260902203038 | 90 | 234 | 5.2 | 9.6 | 0.00 | 0.00 | 0.00 | 59 | 1017.1 |
| 20260902201541 | 91 | 259 | 2.6 | 10.4 | 0.00 | 0.00 | 0.00 | 58 | 1017.2 |
| 20260902200033 | 91 | 248 | 7.0 | 10.4 | 0.00 | 0.00 | 0.00 | 56 | 1017.3 |
| 20260902194529 | 91 | 260 | 1.7 | 7.8 | 0.00 | 0.00 | 0.00 | 57 | 1017.4 |
| 20260902193028 | 91 | 225 | 1.7 | 8.7 | 0.00 | 0.00 | 0.00 | 58 | 1017.6 |
| 20260902191533 | 91 | 228 | 3.5 | 11.3 | 0.00 | 0.00 | 0.00 | 57 | 1017.8 |
| 20260902190020 | 90 | 244 | 2.6 | 8.7 | 0.00 | 0.00 | 0.00 | 61 | 1018.0 |
| 20260902184522 | 90 | 249 | 5.2 | 8.7 | 0.00 | 0.00 | 0.00 | 59 | 1018.0 |
| 20260902183012 | 90 | 238 | 4.3 | 8.7 | 0.00 | 0.00 | 0.00 | 62 | 1018.1 |
| 20260902181508 | 90 | 235 | 3.5 | 9.6 | 0.00 | 0.00 | 0.00 | 59 | 1018.2 |
| 20260902180036 | 90 | 229 | 5.2 | 11.3 | 0.00 | 0.00 | 0.00 | 63 | 1018.4 |
| 20260902174506 | 89 | 194 | 3.5 | 10.4 | 0.00 | 0.00 | 0.00 | 61 | 1018.5 |
| 20260902173013 | 89 | 211 | 5.2 | 8.7 | 0.00 | 0.00 | 0.00 | 62 | 1018.6 |
| 20260902171507 | 89 | 184 | 6.1 | 8.7 | 0.00 | 0.00 | 0.00 | 64 | 1018.9 |
| 20260902170032 | 89 | 236 | 2.6 | 9.6 | 0.00 | 0.00 | 0.00 | 68 | 1018.9 |
| 20260902164515 | 88 | 246 | 3.5 | 7.8 | 0.00 | 0.00 | 0.00 | 66 | 1018.8 |
| 20260902163012 | 88 | 212 | 3.5 | 7.0 | 0.00 | 0.00 | 0.00 | 66 | 1019.0 |
| 20260902161505 | 88 | 271 | 0.9 | 4.3 | 0.00 | 0.00 | 0.00 | 70 | 1019.0 |
| 20260902160009 | 87 | 251 | 3.5 | 5.2 | 0.00 | 0.00 | 0.00 | 70 | 1019.2 |
| 20260902154522 | 86 | 250 | 1.7 | 6.1 | 0.00 | 0.00 | 0.00 | 70 | 1019.2 |
| 20260902153035 | 85 | 243 | 1.7 | 7.0 | 0.00 | 0.00 | 0.00 | 72 | 1019.3 |
| 20260902151523 | 85 | 318 | 3.5 | 7.0 | 0.00 | 0.00 | 0.00 | 71 | 1019.4 |
| 20260902150007 | 84 | 200 | 1.7 | 7.8 | 0.00 | 0.00 | 0.00 | 74 | 1019.3 |
| 20260902144515 | 84 | 229 | 3.5 | 7.8 | 0.00 | 0.00 | 0.00 | 74 | 1019.3 |
| 20260902143009 | 83 | 275 | 2.6 | 7.0 | 0.00 | 0.00 | 0.00 | 74 | 1019.3 |
| 20260902141509 | 82 | 209 | 2.6 | 6.1 | 0.00 | 0.00 | 0.00 | 78 | 1019.2 |
| 20260902140030 | 81 | 249 | 1.7 | 8.7 | 0.00 | 0.00 | 0.00 | 79 | 1019.1 |
| 20260902134508 | 81 | 251 | 2.6 | 6.1 | 0.00 | 0.00 | 0.00 | 78 | 1019.2 |
| 20260902133017 | 79 | 241 | 2.6 | 6.1 | 0.00 | 0.00 | 0.00 | 79 | 1019.1 |
| 20260902131517 | 79 | 236 | 4.3 | 7.8 | 0.00 | 0.00 | 0.00 | 81 | 1019.1 |
| 20260902130015 | 78 | 240 | 4.3 | 8.7 | 0.00 | 0.00 | 0.00 | 83 | 1019.0 |
| 20260902124508 | 76 | 235 | 4.3 | 6.1 | 0.00 | 0.00 | 0.00 | 85 | 1018.9 |
| 20260902123010 | 75 | 229 | 3.5 | 6.1 | 0.00 | 0.00 | 0.00 | 86 | 1018.7 |
| 20260902121518 | 73 | 213 | 3.5 | 5.2 | 0.00 | 0.00 | 0.00 | 88 | 1018.7 |
| 20260902120034 | 73 | 216 | 2.6 | 4.3 | 0.00 | 0.00 | 0.00 | 89 | 1018.7 |
| 20260902114537 | 72 | 229 | 2.6 | 5.2 | 0.00 | 0.00 | 0.00 | 90 | 1018.6 |
| 20260902113011 | 72 | 214 | 2.6 | 4.3 | 0.00 | 0.00 | 0.00 | 90 | 1018.5 |
| 20260902111519 | 72 | 222 | 2.6 | 5.2 | 0.00 | 0.00 | 0.00 | 89 | 1018.3 |
| 20260902110013 | 72 | 200 | 2.6 | 5.2 | 0.00 | 0.00 | 0.00 | 89 | 1018.3 |
| 20260902104529 | 72 | 201 | 2.6 | 4.3 | 0.00 | 0.00 | 0.00 | 89 | 1018.3 |
| 20260902103033 | 72 | 212 | 2.6 | 4.3 | 0.00 | 0.00 | 0.00 | 89 | 1018.3 |
| 20260902101518 | 72 | 227 | 2.6 | 4.3 | 0.00 | 0.00 | 0.00 | 89 | 1018.4 |
| 20260902100022 | 72 | 209 | 1.7 | 3.5 | 0.00 | 0.00 | 0.00 | 89 | 1018.4 |
| 20260902094524 | 72 | 211 | 1.7 | 3.5 | 0.00 | 0.00 | 0.00 | 90 | 1018.3 |
| 20260902093020 | 71 | 209 | 1.7 | 2.6 | 0.00 | 0.00 | 0.00 | 90 | 1018.3 |
| 20260902091520 | 70 | 229 | 1.7 | 1.7 | 0.00 | 0.00 | 0.00 | 92 | 1018.2 |
| 20260902090023 | 70 | 200 | 0.9 | 1.7 | 0.00 | 0.00 | 0.00 | 92 | 1018.2 |
| 20260902084526 | 70 | 200 | 0.9 | 1.7 | 0.00 | 0.00 | 0.00 | 92 | 1018.1 |
| 20260902083028 | 70 | 200 | 0.9 | 1.7 | 0.00 | 0.00 | 0.00 | 91 | 1018.0 |
| 20260902081528 | 71 | 190 | 1.7 | 2.6 | 0.00 | 0.00 | 0.00 | 90 | 1017.9 |
| 20260902080024 | 72 | 201 | 1.7 | 2.6 | 0.00 | 0.00 | 0.00 | 89 | 1017.7 |
| 20260902074520 | 73 | 215 | 1.7 | 2.6 | 0.00 | 0.00 | 0.00 | 88 | 1017.7 |
| 20260902073020 | 74 | 223 | 1.7 | 3.5 | 0.00 | 0.00 | 0.00 | 86 | 1017.6 |
| 20260902071534 | 73 | 215 | 2.6 | 4.3 | 0.00 | 0.00 | 0.00 | 87 | 1017.5 |
| 20260902070041 | 74 | 215 | 1.7 | 3.5 | 0.00 | 0.00 | 0.00 | 86 | 1017.4 |
| 20260902064843 | 74 | 246 | 1.7 | 3.5 | 0.00 | 0.00 | 0.00 | 85 | 1017.4 |
| 20260902063029 | 74 | 232 | 1.7 | 3.5 | 0.00 | 0.00 | 0.00 | 85 | 1017.5 |
| 20260902061528 | 75 | 240 | 2.6 | 5.2 | 0.00 | 0.00 | 0.00 | 85 | 1017.5 |
| 20260902060455 | 75 | 221 | 2.6 | 4.3 | 0.00 | 0.00 | 0.00 | 85 | 1017.6 |
| 20260902054533 | 74 | 204 | 2.6 | 4.3 | 0.00 | 0.00 | 0.00 | 86 | 1017.6 |
| 20260902053025 | 74 | 200 | 2.6 | 4.3 | 0.00 | 0.00 | 0.00 | 87 | 1017.7 |
| 20260902051532 | 75 | 215 | 1.7 | 3.5 | 0.00 | 0.00 | 0.00 | 85 | 1017.5 |
| 20260902050034 | 75 | 246 | 1.7 | 3.5 | 0.00 | 0.00 | 0.00 | 86 | 1017.7 |
| 20260902044529 | 74 | 207 | 1.7 | 2.6 | 0.00 | 0.00 | 0.00 | 87 | 1017.6 |